H1 CPF 2 NER 2024 4 20 9 111 01 glonass128 H2 1106401 9128 37867 2024 4 20 0 0 0 2024 4 23 23 45 0 900 1 1 0 0 0 1 H9 10 0 60420 0.00000 0 -12821408.269 -7209178.013 -20802252.545 10 0 60420 900.00000 0 -13780440.416 -9497643.967 -19218206.799 10 0 60420 1800.00000 0 -14812740.226 -11510879.488 -17259853.863 10 0 60420 2700.00000 0 -15864272.860 -13212385.902 -14965605.492 10 0 60420 3600.00000 0 -16876758.002 -14577846.818 -12380353.735 10 0 60420 4500.00000 0 -17790201.613 -15595872.412 -9554574.330 10 0 60420 5400.00000 0 -18545510.891 -16268205.611 -6543326.483 10 0 60420 6300.00000 0 -19087081.730 -16609385.347 -3405169.883 10 0 60420 7200.00000 0 -19365249.872 -16645884.796 -201021.047 10 0 60420 8100.00000 0 -19338503.411 -16414764.308 3007028.218 10 0 60420 9000.00000 0 -18975364.968 -15961898.483 6156907.280 10 0 60420 9900.00000 0 -18255866.154 -15339854.022 9187755.323 10 0 60420 10800.00000 0 -17172554.269 -14605508.645 12041080.169 10 0 60420 11700.00000 0 -15730990.711 -13817511.360 14661866.388 10 0 60420 12600.00000 0 -13949721.495 -13033689.959 16999613.168 10 0 60420 13500.00000 0 -11859721.747 -12308513.139 19009284.098 10 0 60420 14400.00000 0 -9503337.158 -11690711.702 20652152.857 10 0 60420 15300.00000 0 -6932765.460 -11221156.395 21896530.712 10 0 60420 16200.00000 0 -4208139.174 -10931079.228 22718363.790 10 0 60420 17100.00000 0 -1395286.624 -10840711.116 23101690.147 10 0 60420 18000.00000 0 1436739.022 -10958391.910 23038948.736 10 0 60420 18900.00000 0 4218263.619 -11280189.968 22531134.547 10 0 60420 19800.00000 0 6881624.266 -11790048.015 21587796.390 10 0 60420 20700.00000 0 9363723.690 -12460450.823 20226876.059 10 0 60420 21600.00000 0 11608403.178 -13253589.164 18474390.063 10 0 60420 22500.00000 0 13568537.080 -14122973.984 16363957.604 10 0 60420 23400.00000 0 15207762.303 -15015435.965 13936181.225 10 0 60420 24300.00000 0 16501770.466 -15873429.063 11237889.315 10 0 60420 25200.00000 0 17439107.665 -16637543.159 8321252.570 10 0 60420 26100.00000 0 18021446.683 -17249121.131 5242789.382 10 0 60420 27000.00000 0 18263318.270 -17652870.085 2062277.988 10 0 60420 27900.00000 0 18191310.817 -17799355.562 -1158404.331 10 0 60420 28800.00000 0 17842770.506 -17647271.318 -4356492.274 10 0 60420 29700.00000 0 17264055.703 -17165385.927 -7469569.415 10 0 60420 30600.00000 0 16508419.026 -16334080.535 -10436805.315 10 0 60420 31500.00000 0 15633607.193 -15146409.177 -13200166.647 10 0 60420 32400.00000 0 14699281.516 -13608633.438 -15705576.302 10 0 60420 33300.00000 0 13764370.180 -11740205.898 -17903995.409 10 0 60420 34200.00000 0 12884466.785 -9573200.803 -19752404.681 10 0 60420 35100.00000 0 12109387.714 -7151214.496 -21214663.922 10 0 60420 36000.00000 0 11480994.004 -4527781.318 -22262231.294 10 0 60420 36900.00000 0 11031371.678 -1764371.769 -22874727.238 10 0 60420 37800.00000 0 10781448.667 1071942.226 -23040331.631 10 0 60420 38700.00000 0 10740107.101 3911055.913 -22756006.571 10 0 60420 39600.00000 0 10903828.042 6682525.276 -22027541.162 10 0 60420 40500.00000 0 11256882.364 9318271.805 -20869418.591 10 0 60420 41400.00000 0 11772057.832 11755184.751 -19304509.635 10 0 60420 42300.00000 0 12411889.306 13937512.051 -17363600.361 10 0 60420 43200.00000 0 13130337.589 15818940.805 -15084765.188 10 0 60420 44100.00000 0 13874843.503 17364281.964 -12512599.450 10 0 60420 45000.00000 0 14588668.268 18550691.163 -9697328.355 10 0 60420 45900.00000 0 15213419.656 19368377.685 -6693811.358 10 0 60420 46800.00000 0 15691656.227 19820775.403 -3560462.727 10 0 60420 47700.00000 0 15969459.408 19924172.206 -358110.376 10 0 60420 48600.00000 0 15998865.324 19706817.034 2851184.299 10 0 60420 49500.00000 0 15740054.885 19207545.160 6005322.624 10 0 60420 50400.00000 0 15163211.395 18473981.864 9043358.117 10 0 60420 51300.00000 0 14249969.269 17560401.561 11906657.195 10 0 60420 52200.00000 0 12994394.696 16525332.835 14540010.201 10 0 60420 53100.00000 0 11403458.539 15429009.563 16892673.094 10 0 60420 54000.00000 0 9496982.503 14330773.826 18919321.933 10 0 60420 54900.00000 0 7307060.957 13286537.547 20580904.006 10 0 60420 55800.00000 0 4876981.781 12346406.938 21845371.433 10 0 60420 56700.00000 0 2259689.546 11552566.791 22688285.096 10 0 60420 57600.00000 0 -484147.506 10937510.988 23093278.800 10 0 60420 58500.00000 0 -3288389.431 10522691.605 23052375.680 10 0 60420 59400.00000 0 -6083905.530 10317642.204 22566151.007 10 0 60420 60300.00000 0 -8801184.903 10319611.959 21643737.745 10 0 60420 61200.00000 0 -11372971.594 10513726.813 20302673.492 10 0 60420 62100.00000 0 -13736817.756 10873672.562 18568589.873 10 0 60420 63000.00000 0 -15837450.789 11362873.530 16474747.909 10 0 60420 63900.00000 0 -17628857.030 11936119.920 14061425.695 10 0 60420 64800.00000 0 -19075995.302 12541578.030 11375167.396 10 0 60420 65700.00000 0 -20156067.974 13123100.894 8467905.513 10 0 60420 66600.00000 0 -20859294.790 13622743.484 5395971.293 10 0 60420 67500.00000 0 -21189155.027 13983376.906 2219010.914 10 0 60420 68400.00000 0 -21162085.582 14151290.709 -1001172.311 10 0 60420 69300.00000 0 -20806645.656 14078671.743 -4201827.144 10 0 60420 70200.00000 0 -20162181.644 13725852.265 -7320490.704 10 0 60420 71100.00000 0 -19277047.682 13063229.044 -10296226.230 10 0 60420 72000.00000 0 -18206456.904 12072768.696 -13070836.122 10 0 60420 72900.00000 0 -17010055.005 10749032.032 -15590024.188 10 0 60420 73800.00000 0 -15749320.167 9099670.804 -17804481.970 10 0 60420 74700.00000 0 -14484901.323 7145373.119 -19670875.495 10 0 60420 75600.00000 0 -13274009.547 4919257.849 -21152711.146 10 0 60420 76500.00000 0 -12167975.101 2465742.365 -22221062.109 10 0 60420 77400.00000 0 -11210075.228 -161069.084 -22855140.147 10 0 60420 78300.00000 0 -10433725.774 -2899408.211 -23042701.065 10 0 60420 79200.00000 0 -9861113.517 -5682191.023 -22780276.104 10 0 60420 80100.00000 0 -9502326.631 -8439591.946 -22073225.406 10 0 60420 81000.00000 0 -9355018.803 -11101734.780 -20935613.690 10 0 60420 81900.00000 0 -9404619.250 -13601386.978 -19389912.056 10 0 60420 82800.00000 0 -9625077.278 -15876544.053 -17466533.547 10 0 60420 83700.00000 0 -9980107.099 -17872796.301 -15203213.453 10 0 60420 84600.00000 0 -10424877.426 -19545379.900 -12644248.383 10 0 60420 85500.00000 0 -10908071.753 -20860828.323 -9839610.837 10 0 60421 0.00000 0 -11374229.942 -21798157.441 -6843958.521 10 0 60421 900.00000 0 -11766270.746 -22349538.218 -3715557.421 10 0 60421 1800.00000 0 -12028087.146 -22520431.022 -515144.764 10 0 60421 2700.00000 0 -12107105.575 -22329181.096 2695250.834 10 0 60421 3600.00000 0 -11956700.926 -21806094.024 5853505.038 10 0 60421 4500.00000 0 -11538366.930 -20992033.259 8898588.100 10 0 60421 5400.00000 0 -10823551.951 -19936600.418 11771727.449 10 0 60421 6300.00000 0 -9795084.679 -18695975.675 14417521.570 10 0 60421 7200.00000 0 -8448131.343 -17330508.878 16784985.497 10 0 60421 8100.00000 0 -6790645.451 -15902161.432 18828509.907 10 0 60421 9000.00000 0 -4843291.668 -14471904.363 20508717.638 10 0 60421 9900.00000 0 -2638846.668 -13097179.200 21793203.335 10 0 60421 10800.00000 0 -221100.717 -11829525.248 22657143.989 10 0 60421 11700.00000 0 2356696.460 -10712469.912 23083770.168 10 0 60421 12600.00000 0 5033783.679 -9779767.995 23064689.859 10 0 60421 13500.00000 0 7744152.680 -9054061.921 22600058.941 10 0 60421 14400.00000 0 10419038.472 -8546018.055 21698594.527 10 0 60421 15300.00000 0 12989535.784 -8253975.301 20377429.713 10 0 60421 16200.00000 0 15389236.065 -8164121.598 18661810.616 10 0 60421 17100.00000 0 17556777.906 -8251192.595 16584639.167 10 0 60421 18000.00000 0 19438206.255 -8479665.322 14185867.776 10 0 60421 18900.00000 0 20989042.652 -8805399.062 11511754.813 10 0 60421 19800.00000 0 22175979.578 -9177656.583 8613992.670 10 0 60421 20700.00000 0 22978126.712 -9541422.229 5548723.176 10 0 60421 21600.00000 0 23387754.848 -9839920.046 2375457.870 10 0 60421 22500.00000 0 23410503.890 -10017225.526 -844076.757 10 0 60421 23400.00000 0 23065043.781 -10020859.501 -4047146.549 10 0 60421 24300.00000 0 22382200.555 -9804252.428 -7171245.252 10 0 60421 25200.00000 0 21403582.863 -9328971.913 -10155332.835 10 0 60421 26100.00000 0 20179766.155 -8566615.841 -12941050.341 10 0 60421 27000.00000 0 18768111.342 -7500287.361 -15473885.217 10 0 60421 27900.00000 0 17230310.935 -6125585.867 -17704261.906 10 0 60421 28800.00000 0 15629767.893 -4451068.982 -19588533.978 10 0 60421 29700.00000 0 14028919.873 -2498163.608 -21089856.335 10 0 60421 30600.00000 0 12486623.928 -300528.100 -22178918.834 10 0 60421 31500.00000 0 11055713.970 2097108.341 -22834525.873 10 0 60421 32400.00000 0 9780835.486 4640580.309 -23044010.158 10 0 60421 33300.00000 0 8696649.570 7268325.566 -22803472.670 10 0 60421 34200.00000 0 7826481.898 9913742.524 -22117844.814 10 0 60421 35100.00000 0 7181472.629 12507765.759 -21000772.677 10 0 60421 36000.00000 0 6760261.238 14981550.559 -19474327.138 10 0 60421 36900.00000 0 6549217.039 17269153.232 -17568547.297 10 0 60421 37800.00000 0 6523202.665 19310094.750 -15320828.024 10 0 60421 38700.00000 0 6646835.034 21051700.829 -12775165.538 10 0 60421 39600.00000 0 6876187.362 22451121.651 -9981277.621 10 0 60421 40500.00000 0 7160857.451 23476948.567 -6993617.324 10 0 60421 41400.00000 0 7446312.554 24110362.655 -3870300.795 10 0 60421 42300.00000 0 7676410.097 24345769.968 -671971.168 10 0 60421 43200.00000 0 7795986.994 24190900.119 2539378.751 10 0 60421 44100.00000 0 7753408.170 23666367.210 5701602.080 10 0 60421 45000.00000 0 7502967.497 22804714.345 8753588.896 10 0 60421 45900.00000 0 7007041.160 21648983.969 11636430.633 10 0 60421 46800.00000 0 6237904.356 20250875.320 14294536.777 10 0 60421 47700.00000 0 5179136.570 18668566.626 16676684.086 10 0 60421 48600.00000 0 3826557.756 16964292.662 18736980.293 10 0 60421 49500.00000 0 2188657.040 15201777.558 20435725.975 10 0 60421 50400.00000 0 286496.100 13443628.030 21740160.210 10 0 60421 51300.00000 0 -1846909.521 11748793.304 22625077.695 10 0 60421 52200.00000 0 -4167707.057 10170194.937 23073307.011 10 0 60421 53100.00000 0 -6622777.120 8752622.850 23076041.828 10 0 60421 54000.00000 0 -9151696.086 7530983.144 22633019.000 10 0 60421 54900.00000 0 -11689012.269 6528969.266 21752539.659 10 0 60421 55800.00000 0 -14166744.893 5758211.387 20451331.713 10 0 60421 56700.00000 0 -16517005.363 5217939.682 18754254.548 10 0 60421 57600.00000 0 -18674634.657 4895176.609 16693849.240 10 0 60421 58500.00000 0 -20579748.948 4765451.787 14309740.286 10 0 60421 59400.00000 0 -22180088.331 4794011.473 11647897.630 10 0 60421 60300.00000 0 -23433070.513 4937473.874 8759770.638 10 0 60421 61200.00000 0 -24307462.459 5145862.398 5701308.626 10 0 60421 62100.00000 0 -24784598.082 5364932.333 2531885.297 10 0 60421 63000.00000 0 -24859088.415 5538693.086 -686852.875 10 0 60421 63900.00000 0 -24538991.742 5612018.802 -3892191.957 10 0 60421 64800.00000 0 -23845433.996 5533235.351 -7021585.390 10 0 60421 65700.00000 0 -22811693.317 5256571.764 -10013892.811 10 0 60421 66600.00000 0 -21481785.948 4744369.204 -12810596.693 10 0 60421 67500.00000 0 -19908612.587 3968950.487 -15356970.695 10 0 60421 68400.00000 0 -18151743.634 2914067.481 -17603174.468 10 0 60421 69300.00000 0 -16274937.895 1575861.883 -19505251.068 10 0 60421 70200.00000 0 -14343500.954 -36704.003 -21026005.445 10 0 60421 71100.00000 0 -12421596.539 -1901966.733 -22135745.177 10 0 60421 72000.00000 0 -10569626.073 -3986227.633 -22812867.848 10 0 60421 72900.00000 0 -8841788.378 -6244937.532 -23044283.108 10 0 60421 73800.00000 0 -7283923.256 -8624350.200 -22825661.244 10 0 60421 74700.00000 0 -5931729.964 -11063574.113 -22161504.042 10 0 60421 75600.00000 0 -4809434.859 -13496935.234 -21065037.670 10 0 60421 76500.00000 0 -3928962.733 -15856550.401 -19557931.173 10 0 60421 77400.00000 0 -3289644.318 -18075002.295 -17669847.800 10 0 60421 78300.00000 0 -2878469.267 -20088003.164 -15437839.897 10 0 60421 79200.00000 0 -2670870.494 -21836935.556 -12905601.039 10 0 60421 80100.00000 0 -2632003.265 -23271164.119 -10122591.963 10 0 60421 81000.00000 0 -2718461.669 -24350022.902 -7143059.009 10 0 60421 81900.00000 0 -2880357.052 -25044396.811 -4024965.630 10 0 60421 82800.00000 0 -3063668.368 -25337833.444 -828858.878 10 0 60421 83700.00000 0 -3212763.645 -25227141.579 2383306.451 10 0 60421 84600.00000 0 -3272985.491 -24722454.172 5549363.065 10 0 60421 85500.00000 0 -3193191.674 -23846756.010 8608122.972 10 0 60422 0.00000 0 -2928144.553 -22634898.281 11500543.429 10 0 60422 900.00000 0 -2440649.894 -21132142.239 14170847.448 10 0 60422 1800.00000 0 -1703357.073 -19392295.401 16567575.175 10 0 60422 2700.00000 0 -700146.132 -17475515.864 18644553.194 10 0 60422 3600.00000 0 572955.029 -15445876.926 20361761.433 10 0 60422 4500.00000 0 2107361.232 -13368791.148 21686084.789 10 0 60422 5400.00000 0 3882045.723 -11308398.866 22591936.777 10 0 60422 6300.00000 0 5864177.296 -9325027.093 23061744.795 10 0 60422 7200.00000 0 8010254.272 -7472821.789 23086288.699 10 0 60422 8100.00000 0 10267690.898 -5797649.479 22664886.513 10 0 60422 9000.00000 0 12576793.486 -4335353.538 21805423.277 10 0 60422 9900.00000 0 14873047.627 -3110436.512 20524221.327 10 0 60422 10800.00000 0 17089624.835 -2135222.931 18845752.655 10 0 60422 11700.00000 0 19160007.341 -1409537.971 16802196.557 10 0 60422 12600.00000 0 21020624.027 -920916.518 14432848.414 10 0 60422 13500.00000 0 22613388.958 -645335.507 11783388.261 10 0 60422 14400.00000 0 23888036.797 -548440.686 8905020.655 10 0 60422 15300.00000 0 24804156.677 -587218.033 5853500.302 10 0 60422 16200.00000 0 25332837.597 -712040.843 2688060.700 10 0 60422 17100.00000 0 25457853.898 -869006.833 -529734.313 10 0 60422 18000.00000 0 25176338.158 -1002466.461 -3737193.830 10 0 60422 18900.00000 0 24498910.308 -1057634.441 -6871733.857 10 0 60422 19800.00000 0 23449254.912 -983171.979 -9872116.553 10 0 60422 20700.00000 0 22063162.355 -733627.667 -12679668.558 10 0 60422 21600.00000 0 20387073.118 -271630.458 -15239452.298 10 0 60422 22500.00000 0 18476186.047 430261.611 -17501364.944 10 0 60422 23400.00000 0 16392210.842 1388138.501 -19421141.113 10 0 60422 24300.00000 0 14200860.557 2605804.228 -20961237.625 10 0 60422 25200.00000 0 11969191.339 4074373.710 -22091581.360 10 0 60422 26100.00000 0 9762903.148 5772418.986 -22790164.417 10 0 60422 27000.00000 0 7643716.671 7666659.414 -23043474.444 10 0 60422 27900.00000 0 5666937.896 9713166.753 -22846751.787 10 0 60422 28800.00000 0 3879313.309 11859033.741 -22204069.027 10 0 60422 29700.00000 0 2317265.481 14044434.823 -21128232.473 10 0 60422 30600.00000 0 1005582.011 16204991.138 -19640508.991 10 0 60422 31500.00000 0 -43389.170 18274339.010 -17770185.256 10 0 60422 32400.00000 0 -830007.177 20186793.081 -15553969.952 10 0 60422 33300.00000 0 -1367060.416 21879991.645 -13035252.504 10 0 60422 34200.00000 0 -1678959.087 23297413.179 -10263234.730 10 0 60422 35100.00000 0 -1800435.755 24390659.115 -7291954.047 10 0 60422 36000.00000 0 -1774812.216 25121408.481 -4179218.717 10 0 60422 36900.00000 0 -1651908.684 25462964.334 -985476.971 10 0 60422 37800.00000 0 -1485685.732 25401329.579 2227357.311 10 0 60422 38700.00000 0 -1331719.784 24935769.708 5397099.439 10 0 60422 39600.00000 0 -1244619.114 24078841.510 8462486.383 10 0 60422 40500.00000 0 -1275488.883 22855888.924 11364344.715 10 0 60422 41400.00000 0 -1469550.966 21304028.891 14046712.833 10 0 60422 42300.00000 0 -1864017.216 19470670.711 16457897.563 10 0 60422 43200.00000 0 -2486303.928 17411630.870 18551446.920 10 0 60422 44100.00000 0 -3352660.928 15188921.267 20287022.560 10 0 60422 45000.00000 0 -4467271.710 12868301.374 21631157.331 10 0 60422 45900.00000 0 -5821861.898 10516693.953 22557885.405 10 0 60422 46800.00000 0 -7395832.922 8199568.963 23049234.505 10 0 60422 47700.00000 0 -9156916.671 5978401.491 23095571.774 10 0 60422 48600.00000 0 -11062326.114 3908306.442 22695797.041 10 0 60422 49500.00000 0 -13060356.859 2035945.800 21857379.372 10 0 60422 50400.00000 0 -15092376.317 397793.703 20596235.075 10 0 60422 51300.00000 0 -17095121.062 -981169.547 18936447.711 10 0 60422 52200.00000 0 -19003209.929 -2088280.297 16909833.173 10 0 60422 53100.00000 0 -20751770.672 -2923496.208 14555355.566 10 0 60422 54000.00000 0 -22279072.372 -3499168.774 11918402.380 10 0 60422 54900.00000 0 -23529054.347 -3839291.584 9049930.353 10 0 60422 55800.00000 0 -24453645.367 -3978254.059 6005496.301 10 0 60422 56700.00000 0 -25014774.589 -3959151.573 2844190.072 10 0 60422 57600.00000 0 -25185987.567 -3831722.062 -372510.645 10 0 60422 58500.00000 0 -24953596.492 -3649995.913 -3581941.462 10 0 60422 59400.00000 0 -24317313.184 -3469758.998 -6721484.374 10 0 60422 60300.00000 0 -23290335.093 -3345937.622 -9729807.355 10 0 60422 61200.00000 0 -21898878.058 -3330018.384 -12548084.329 10 0 60422 62100.00000 0 -20181173.540 -3467615.050 -15121169.361 10 0 60422 63000.00000 0 -18185971.468 -3796288.768 -17398699.705 10 0 60422 63900.00000 0 -15970611.510 -4343717.159 -19336103.690 10 0 60422 64800.00000 0 -13598744.569 -5126292.804 -20895491.676 10 0 60422 65700.00000 0 -11137801.503 -6148212.938 -22046410.934 10 0 60422 66600.00000 0 -8656317.129 -7401100.609 -22766448.566 10 0 60422 67500.00000 0 -6221223.513 -8864174.335 -23041670.100 10 0 60422 68400.00000 0 -3895227.574 -10504959.328 -22866885.234 10 0 60422 69300.00000 0 -1734383.959 -12280509.764 -22245736.124 10 0 60422 70200.00000 0 214034.899 -14139089.573 -21190607.552 10 0 60422 71100.00000 0 1913282.920 -16022239.545 -19722362.186 10 0 60422 72000.00000 0 3338427.175 -17867142.238 -17869907.826 10 0 60422 72900.00000 0 4477125.865 -19609183.796 -15669607.000 10 0 60422 73800.00000 0 5329868.012 -21184603.905 -13164542.352 10 0 60422 74700.00000 0 5909668.484 -22533121.907 -10403654.082 10 0 60422 75600.00000 0 6241235.093 -23600428.818 -7440767.983 10 0 60422 76500.00000 0 6359646.622 -24340441.306 -4333534.449 10 0 60422 77400.00000 0 6308600.907 -24717224.339 -1142300.302 10 0 60422 78300.00000 0 6138309.587 -24706503.746 2071063.986 10 0 60422 79200.00000 0 5903130.241 -24296707.487 5244358.681 10 0 60422 80100.00000 0 5659036.799 -23489494.393 8316247.934 10 0 60422 81000.00000 0 5461034.967 -22299750.484 11227429.441 10 0 60422 81900.00000 0 5360630.854 -20755054.875 13921759.379 10 0 60422 82800.00000 0 5403458.033 -18894638.846 16347312.667 10 0 60422 83700.00000 0 5627161.120 -16767881.978 18457360.202 10 0 60422 84600.00000 0 6059623.017 -14432407.564 20211246.554 10 0 60422 85500.00000 0 6717608.660 -11951855.297 21575153.419 10 0 60423 0.00000 0 7605881.048 -9393421.970 22522736.162 10 0 60423 900.00000 0 8716826.834 -6825268.257 23035623.274 10 0 60423 1800.00000 0 10030606.568 -4313899.659 23103769.049 10 0 60423 2700.00000 0 11515826.477 -1921622.639 22725654.794 10 0 60423 3600.00000 0 13130705.027 295817.862 21908332.999 10 0 60423 4500.00000 0 14824689.005 2291325.110 20667313.104 10 0 60423 5400.00000 0 16540454.950 4028176.056 19026289.171 10 0 60423 6300.00000 0 18216215.724 5481314.576 17016712.430 10 0 60423 7200.00000 0 19788238.748 6638158.387 14677214.246 10 0 60423 8100.00000 0 21193472.878 7498885.093 12052887.916 10 0 60423 9000.00000 0 22372175.254 8076183.951 9194440.500 10 0 60423 9900.00000 0 23270428.193 8394482.022 6157228.878 10 0 60423 10800.00000 0 23842439.591 8488675.518 3000197.013 10 0 60423 11700.00000 0 24052528.262 8402418.386 -215265.940 10 0 60423 12600.00000 0 23876707.965 8186039.530 -3426524.602 10 0 60423 13500.00000 0 23303800.219 7894176.654 -6570929.465 10 0 60423 14400.00000 0 22336025.715 7583227.667 -9587056.781 10 0 60423 15300.00000 0 20989046.252 7308729.240 -12415930.083 10 0 60423 16200.00000 0 19291452.861 7122775.961 -15002197.221 10 0 60423 17100.00000 0 17283719.817 7071592.282 -17295237.446 10 0 60423 18000.00000 0 15016667.656 7193363.202 -19250174.505 10 0 60423 18900.00000 0 12549499.785 7516418.487 -20828773.780 10 0 60423 19800.00000 0 9947495.885 8057849.877 -22000204.241 10 0 60423 20700.00000 0 7279460.281 8822621.712 -22741649.110 10 0 60423 21600.00000 0 4615033.848 9803213.777 -23038752.710 10 0 60423 22500.00000 0 2021983.660 10979811.832 -22885894.783 10 0 60423 23400.00000 0 -436414.841 12321037.426 -22286287.462 10 0 60423 24300.00000 0 -2703792.976 13785185.135 -21251894.078 10 0 60423 25200.00000 0 -4732800.306 15321913.589 -19803172.804 10 0 60423 26100.00000 0 -6486825.123 16874317.279 -17968651.881 10 0 60423 27000.00000 0 -7941253.880 18381290.104 -15784346.622 10 0 60423 27900.00000 0 -9084219.582 19780079.643 -13293031.475 10 0 60423 28800.00000 0 -9916811.174 21008923.493 -10543383.291 10 0 60423 29700.00000 0 -10452739.001 22009656.241 -7589014.229 10 0 60423 30600.00000 0 -10717474.305 22730177.514 -4487414.598 10 0 60423 31500.00000 0 -10746902.743 23126678.145 -1298827.396 10 0 60423 32400.00000 0 -10585551.809 23165532.274 1914922.850 10 0 60423 33300.00000 0 -10284469.367 22824777.791 5091624.012 10 0 60423 34200.00000 0 -9898844.298 22095125.100 8169870.118 10 0 60423 35100.00000 0 -9485470.142 20980454.033 11090232.711 10 0 60423 36000.00000 0 -9100158.336 19497779.958 13796388.466 10 0 60423 36900.00000 0 -8795208.825 17676691.867 16236183.050 10 0 60423 37800.00000 0 -8617042.822 15558286.557 18362612.814 10 0 60423 38700.00000 0 -8604095.257 13193643.119 20134707.683 10 0 60423 39600.00000 0 -8785053.469 10641900.198 21518300.459 10 0 60423 40500.00000 0 -9177514.442 7968014.045 22486669.849 10 0 60423 41400.00000 0 -9787115.917 5240287.845 23021046.502 10 0 60423 42300.00000 0 -10607177.588 2527771.812 23110973.430 10 0 60423 43200.00000 0 -11618868.210 -102361.364 22754514.350 10 0 60423 44100.00000 0 -12791893.344 -2587360.021 21958305.616 10 0 60423 45000.00000 0 -14085677.412 -4871253.124 20737449.684 10 0 60423 45900.00000 0 -15450993.690 -6906930.063 19115250.445 10 0 60423 46800.00000 0 -16831977.240 -8657855.445 17122793.197 10 0 60423 47700.00000 0 -18168439.613 -10099347.794 14798374.756 10 0 60423 48600.00000 0 -19398390.927 -11219368.355 12186791.906 10 0 60423 49500.00000 0 -20460665.348 -12018785.838 9338499.291 10 0 60423 50400.00000 0 -21297540.477 -12511104.351 6308650.772 10 0 60423 51300.00000 0 -21857240.202 -12721664.136 3156041.100 10 0 60423 52200.00000 0 -22096214.232 -12686347.062 -58032.586 10 0 60423 53100.00000 0 -21981095.913 -12449840.216 -3270967.472 10 0 60423 54000.00000 0 -21490252.700 -12063530.344 -6420086.121 10 0 60423 54900.00000 0 -20614860.472 -11583118.428 -9443876.576 10 0 60423 55800.00000 0 -19359452.941 -11066056.451 -12283215.386 10 0 60423 56700.00000 0 -17741919.861 -10568916.776 -14882547.395 10 0 60423 57600.00000 0 -15792951.669 -10144808.026 -17190996.792 10 0 60423 58500.00000 0 -13554952.246 -9840949.714 -19163385.289 10 0 60423 59400.00000 0 -11080464.839 -9696511.157 -20761135.357 10 0 60423 60300.00000 0 -8430177.323 -9740808.721 -21953039.149 10 0 60423 61200.00000 0 -5670591.416 -9991939.698 -22715876.852 10 0 60423 62100.00000 0 -2871454.838 -10455911.935 -23034871.770 10 0 60423 63000.00000 0 -103065.431 -11126306.499 -22903973.233 10 0 60423 63900.00000 0 2566438.484 -11984487.368 -22325962.321 10 0 60423 64800.00000 0 5073687.268 -13000348.260 -21312379.377 10 0 60423 65700.00000 0 7362479.175 -14133563.532 -19883276.132 10 0 60423 66600.00000 0 9385869.768 -15335288.392 -18066798.987 10 0 60423 67500.00000 0 11107865.505 -16550234.671 -15898613.472 10 0 60423 68400.00000 0 12504652.892 -17719032.687 -13421183.054 10 0 60423 69300.00000 0 13565314.682 -18780778.003 -10682918.276 10 0 60423 70200.00000 0 14292006.694 -19675654.645 -7737214.575 10 0 60423 71100.00000 0 14699591.685 -20347523.833 -4641399.007 10 0 60423 72000.00000 0 14814749.515 -20746369.402 -1455607.582 10 0 60423 72900.00000 0 14674604.563 -20830497.869 1758384.231 10 0 60423 73800.00000 0 14324931.114 -20568402.065 4938354.867 10 0 60423 74700.00000 0 13818014.384 -19940211.785 8022830.995 10 0 60423 75600.00000 0 13210258.444 -18938672.524 10952260.480 10 0 60423 76500.00000 0 12559641.928 -17569613.094 13670142.650 10 0 60423 77400.00000 0 11923127.874 -15851883.954 16124095.721 10 0 60423 78300.00000 0 11354135.175 -13816769.711 18266842.919 10 0 60423 79200.00000 0 10900175.872 -11506900.291 20057100.549 10 0 60423 80100.00000 0 10600755.352 -8974705.360 21460353.160 10 0 60423 81000.00000 0 10485621.468 -6280474.590 22449502.992 10 0 60423 81900.00000 0 10573434.334 -3490101.851 23005382.896 10 0 60423 82800.00000 0 10870911.614 -672603.981 23117124.027 10 0 60423 83700.00000 0 11372485.009 2102486.347 22782371.709 10 0 60423 84600.00000 0 12060483.209 4767748.911 22007345.063 10 0 60423 85500.00000 0 12905835.381 7260419.420 20806738.221 99